SL-3 R/B, 11608

Orbit data source: Space-Track

SL-3 R/B, 11608 is space debris in LEO originally from a launch on Wed, 31 Oct 1979 UTC launched from the Plesetsk Missile And Space Complex (PKMTR). Debris objects in space refer to the collection of defunct objects orbiting the Earth. Examples of debris include non-operational satellites, rocket bodies, and fragments generated from explosions, collisions, or faulty payload assembly.

Loading next visibility...
Identifier
11608, 1979-095B
Orbit
LEO
Country
Flag of CISCIS
Related business
Manufacturer
Progress
Mission
Spacecraft
Bus & Motor
BLOK-E, Unknown motor
Mass
1,440 kg wet, 1,440 kg dry
Launch date (UTC)
1979-10-31 (47 years ago)
Launch vehicle
Unknown
Launch site
Plesetsk Missile And Space Complex (PKMTR)
Object type
Payload
Rocket body
Debris
Shape & HBR
Unknown
Radar Cross Section
Large (>1 m²)

Expand to show TLE details & history
Last TLE update: 5 hours ago

TLE from 5 hours ago
0 SL-3 R/B
1 11608U 79095B   26123.85862693 -.00000056  00000-0 -40861-4 0  9993
2 11608  81.2105 303.4950 0055323  52.2542 308.3621 14.06557236385588
Epoch: 2026-05-03T20:36Z
TLE epoch observation values (Epoch: 2026-05-03T20:36:25.366Z)
Latitude
-0.00002°
Longitude
132.63316°
Altitude
849.312 km
Speed
7.441 km/s
True Right ascension
20h 13m 58s
True Declination
0° 00' 00"
Sunlit
Object was in daylight at epoch
Visualization orbit readout
Latitude
Unknown
Longitude
Unknown
Altitude
Unknown
Speed
Unknown
Apparent Right ascension
Unknown
Apparent Declination
Unknown
Sunlit
N/A
Visualization observer readout
Local Sidereal Time
09:36:26
Azimuth
Unknown
Elevation
Unknown
Doppler factor
Unknown
Orbital elements
Apogee altitude
908.447 km
Perigee altitude
828.267 km
Semi-major axis
7,246.494 km
Eccentricity
0.00553
Inclination
81.2105°
RAAN
303.495°
Arg. of periapsis
52.2542°
True anomaly
307.86288°
Mean anomaly
308.3621°
Eccentric anomaly
308.1127°
Mean motion
3.51845 °/min
Orbital period
102.32 mins
BSTAR
-0.000040861
Loading maneuver chart data...
Computing Atmospheric mass density...

Documentation

Showing up to 5 results
|